Weather History for Afonsos, Brazil

Change the Weather History Date:

Monday, April 1, 2013

  Actual Average Record
Temperature  
Mean Temperature 78 °F -  
Max Temperature 87 °F 85 °F 91 °F (2014)
Min Temperature 69 °F 72 °F 64 °F (2012)
Cooling Degree Days 13    
Growing Degree Days 28 (Base 50)    
Moisture  
Dew Point 70 °F    
Average Humidity 79    
Maximum Humidity 94    
Minimum Humidity 55    
Precipitation  
Precipitation 0.00 in - - ()
Sea Level Pressure  
Sea Level Pressure 30.03 in    
Wind  
Wind Speed 3 mph ()    
Max Wind Speed 14 mph    
Max Gust Speed -    
Visibility 5.6 miles    
Events      
Averages and records for this station are not official NWS values.
T = Trace of Precipitation, MM = Missing Value Source: Averaged Metar Reports

Daily Weather History Graph

Daily Weather History Graph

Search for Another Location

Airport:

Trip Planner

Search our weather history database for the weather conditions in past years. The results will help you decide how hot, cold, wet, or windy it might be!

Date:

Astronomy

Apr. 01, 2013 Rise Set
Actual Time 6:01 AM BRT 5:52 PM BRT
Civil Twilight 5:39 AM BRT 6:15 PM BRT
Nautical Twilight 5:13 AM BRT 6:41 PM BRT
Astronomical Twilight 4:47 AM BRT 7:07 PM BRT
Moon 10:25 PM BRT 11:08 AM BRT
Length of Visible Light 12h 35m
Length of Day
11h 51m
Waning Gibbous, 68% of the Moon is Illuminated
Apr 1
Waning Gibbous
Apr 3
Last Quarter
Apr 10
New
Apr 18
First Quarter
Apr 25
Full

Hourly Weather History & Observations

Time (BRT) Temp. Heat Index Dew Point Humidity Pressure Visibility Wind Dir Wind Speed Gust Speed Precip Events Conditions
12:00 AM 71.6 °F - 69.8 °F 94% 30.06 in 6.2 mi West 2.3 mph - N/A   Partly Cloudy
1:00 AM 71.6 °F - 69.8 °F 94% 30.06 in - Calm Calm - N/A   Clear
2:00 AM 71.6 °F - 69.8 °F 94% 30.06 in - Calm Calm - N/A   Clear
3:00 AM 71.6 °F - 69.8 °F 94% 30.04 in 6.2 mi West 2.3 mph - N/A   Scattered Clouds
4:00 AM 69.8 °F - 68.0 °F 94% 30.04 in 6.2 mi Calm Calm - N/A   Scattered Clouds
5:00 AM 69.8 °F - 68.0 °F 94% 30.04 in 6.2 mi SW 3.5 mph - N/A   Scattered Clouds
6:00 AM 69.8 °F - 68.0 °F 94% 30.04 in 3.7 mi West 2.3 mph - N/A   Scattered Clouds
7:00 AM 71.6 °F - 69.8 °F 94% 30.06 in 2.8 mi West 2.3 mph - N/A   Mostly Cloudy
8:00 AM 75.2 °F - 73.4 °F 94% 30.06 in 2.8 mi WNW 1.2 mph - N/A   Scattered Clouds
9:00 AM 80.6 °F 84.6 °F 71.6 °F 74% 30.06 in 4.3 mi NW 1.2 mph - N/A   Scattered Clouds
10:00 AM 82.4 °F 86.3 °F 69.8 °F 66% 30.06 in 6.2 mi West 2.3 mph - N/A   Partly Cloudy
11:00 AM 84.2 °F 87.3 °F 68.0 °F 58% 30.06 in 6.2 mi SE 2.3 mph - N/A   Scattered Clouds
12:00 PM 86.0 °F 89.4 °F 68.0 °F 55% 30.04 in 6.2 mi West 5.8 mph - N/A   Scattered Clouds
1:00 PM 87.8 °F 93.8 °F 71.6 °F 58% 30.01 in 6.2 mi SSE 10.4 mph - N/A   Scattered Clouds
2:00 PM 86.0 °F 91.8 °F 71.6 °F 62% 29.98 in 6.2 mi South 10.4 mph - N/A   Scattered Clouds
3:00 PM 86.0 °F 90.4 °F 69.8 °F 58% 29.98 in 6.2 mi South 11.5 mph - N/A   Partly Cloudy
4:00 PM 82.4 °F 86.3 °F 69.8 °F 66% 29.98 in 6.2 mi South 10.4 mph - N/A   Partly Cloudy
5:00 PM 80.6 °F 83.2 °F 68.0 °F 65% 30.01 in 6.2 mi South 13.8 mph - N/A   Partly Cloudy
6:00 PM 77.0 °F - 69.8 °F 78% 30.01 in 6.2 mi South 10.4 mph - N/A   Partly Cloudy
7:00 PM 77.0 °F - 69.8 °F 78% 30.04 in 6.2 mi SW 4.6 mph - N/A   Scattered Clouds
8:00 PM 77.0 °F - 69.8 °F 78% 30.01 in 6.2 mi SW 4.6 mph - N/A   Mostly Cloudy
11:00 PM 73.4 °F - 69.8 °F 88% 30.04 in 5.6 mi West 2.3 mph - N/A   Mostly Cloudy